Regional Weather Roundup
Issued by NWS Jackson, KY

Home | Current Version | Previous Version | Graphics & Text | Print | Product List | Glossary On
Versions: 1 2 3 4 5 6 7 8 9 10 11 12 13 14 15 16 17 18 19 20 21 22 23 24 25 26 27
000
ASUS43 KJKL 051610
RWRJKL

EAST KENTUCKY HOURLY WEATHER ROUNDUP
NATIONAL WEATHER SERVICE JACKSON KY
1100 AM EST MON DEC 05 2016

NOTE: "FAIR" INDICATES FEW OR NO CLOUDS BELOW 12,000 FEET WITH
NO SIGNIFICANT WEATHER AND/OR OBSTRUCTIONS TO VISIBILITY.

* THESE REPORTS ARE NOT UNDER NWS QUALITY CONTROL AND MAY NOT
  REPORT WEATHER SUCH AS PRECIPITATION AND FOG.

KYZ079-080-083-085-087-088-110-112-115-119-120-051700
...EASTERN KENTUCKY...

CITY           SKY/WX    TMP DP  RH WIND       PRES   REMARKS
SOMERSET*      CLOUDY    43  39  87 NE7       30.10F
MONTICELLO*    CLOUDY    44  40  85 VRB5      30.11R
WILLIAMSBURG*  CLOUDY    45  45 100 NE5       30.08S
MIDDLESBORO*   CLOUDY    47  43  85 CALM      30.09S
HARLAN APT*    CLOUDY    46  41  81 CALM      30.07F
PIKE CO APT*   CLOUDY    45  41  86 CALM      30.10R
BIG SANDY APT* CLOUDY    47  39  74 NE3       30.10S
MOREHEAD APT*  CLOUDY    43  34  70 NE5       30.12S
ASHLAND*       PTSUNNY   46  36  66 CALM      30.11R
$$

KYZ035-036-041-042-044-050-067-078-099-051700
...CENTRAL KENTUCKY...

CITY           SKY/WX    TMP DP  RH WIND       PRES   REMARKS
MT STERLING*   CLOUDY    41  34  75 SE3       30.13R
FLEMING/MASON* CLOUDY    43  33  68 CALM      30.13S
DANVILLE*      CLOUDY    41  36  81 E7        30.12S
LEXINGTON      CLOUDY    42  33  70 E8        30.12R
LOUISVILLE     CLOUDY    41  31  67 E6        30.14R
LEBANON*       CLOUDY    41  36  81 CALM      30.12S
GLASGOW*       CLOUDY    40  40  98 E7        30.10S
BOWLING GREEN  CLOUDY    41  36  82 NE12      30.11R
$$

KYZ091>093-OHZ055-061-077-WVZ005-015-034-035-042-051700
...SOUTHERN OHIO/WEST VIRGINIA...

CITY           SKY/WX    TMP DP  RH WIND       PRES   REMARKS
COVINGTON      CLOUDY    38  31  76 CALM      30.12R
COLUMBUS       CLOUDY    37  31  78 VRB7      30.12S WCI  32
DAYTON         CLOUDY    36  30  79 SW5       30.12R WCI  32
WILMINGTON     CLOUDY    37  31  78 CALM      30.12R
HUNTINGTON     CLOUDY    47  37  68 NE3       30.11R
CHARLESTON     MOSUNNY   49  34  56 S5        30.10R
PINEVILLE*     CLOUDY    48  36  62 MISG      30.13R
BECKLEY        CLOUDY    42  33  70 W8        30.07R
BLUEFIELD      CLOUDY    42  35  76 N5        30.07R
LOGAN CO APT*    N/A     45  34  65 CALM      30.08S
$$

VAZ002-007-008-TNZ017-027-036-066-071-051700
...SOUTHWEST VIRGINIA/EAST TENNESSEE...

CITY           SKY/WX    TMP DP  RH WIND       PRES   REMARKS
WISE*          CLOUDY    43  43 100 CALM      30.08S
JONESVILLE*    CLOUDY    50  45  81 CALM      30.10R
ABINGDON*      CLOUDY    49  43  80 E5        30.07S
BRISTOL        PTSUNNY   49  45  86 SE3       30.07R
MORRISTOWN*    CLOUDY    48  46  93 E5        30.05S
SEVIERVILLE*   CLOUDY    46  46 100 NE5       30.05S
KNOXVILLE      CLOUDY    50  47  89 NE8       30.05R
OAK RIDGE      CLOUDY    51  45  79 E9        30.07S
CROSSVILLE     CLOUDY    44  43  96 NE8       30.04S
NASHVILLE      CLOUDY    44  40  85 E8        30.07S
$$

...KEY TO REMARKS...
VSB - VISIBILITY IN MILES
WCI - WIND CHILL INDEX
HX  - HEAT INDEX

$$




USA.gov is the U.S. government's official web portal to all federal, state and local government web resources and services.